WXM80 ListenWXM80 Stop

You find our weather info also at:

UK Metoffice

WeatherCloud

Weather Underground

Northeastern Weather Network

AWEKAS

Citizen Weather Observer Program (CWOP)

HAMweather, WeatherForYou, PWS Weather


Weather Underground History page Text

Daily Summary for November 23, 2016 Units:  English    Metric   Both
« Previous Day
Next Day »
Daily Weekly Monthly Yearly Custom
  High: Low: Average:
Temperature: 44.4 °F 35.7 °F 39.6 °F
Dew Point: 31.3 °F 26.5 °F 28.4 °F
Humidity: 71 % 54 % 64 %
Wind Speed: 9.1 mph 0.0 mph 4.1 mph
Wind Gust: 18.4 mph - -
Wind:- - WSW
Pressure: 30.29 in 30.16 in -
Precipitation: 0.00 in    
Historical Graphs
 
 
Tabular Data for November 23, 2016
Time Temperature Dew Point Pressure Wind Wind Speed Wind Gust Humidity Rainfall Rate (Hourly)
00:03 38.6 °F 28.6 °F 30.16 in NNW 5.9 mph 10.4 mph 67 % 0.00 in
00:08 38.7 °F 28.7 °F 30.16 in NW 0.8 mph 2.3 mph 67 % 0.00 in
00:13 38.7 °F 28.7 °F 30.16 in WNW 4.6 mph 10.4 mph 67 % 0.00 in
00:18 38.7 °F 28.7 °F 30.16 in NW 1.9 mph 11.5 mph 67 % 0.00 in
00:23 38.7 °F 28.7 °F 30.16 in NNW 2.9 mph 5.8 mph 67 % 0.00 in
00:28 38.7 °F 28.7 °F 30.16 in WNW 5.7 mph 9.2 mph 67 % 0.00 in
00:33 38.7 °F 28.7 °F 30.16 in SW 6.7 mph 11.5 mph 67 % 0.00 in
00:38 38.7 °F 29.0 °F 30.16 in NNW 6.5 mph 10.4 mph 68 % 0.00 in
00:44 38.7 °F 28.7 °F 30.16 in WNW 4.8 mph 9.0 mph 67 % 0.00 in
00:49 38.7 °F 28.7 °F 30.16 in WSW 7.7 mph 11.5 mph 67 % 0.00 in
00:54 38.6 °F 28.6 °F 30.16 in NW 6.9 mph 11.5 mph 67 % 0.00 in
00:59 38.6 °F 28.6 °F 30.16 in West 5.7 mph 16.0 mph 67 % 0.00 in
01:02 38.6 °F 28.9 °F 30.16 in WNW 7.0 mph 11.5 mph 68 % 0.00 in
01:07 38.5 °F 28.5 °F 30.16 in NW 5.1 mph 15.0 mph 67 % 0.00 in
01:17 38.3 °F 28.7 °F 30.16 in WNW 3.3 mph 4.6 mph 68 % 0.00 in
01:22 38.2 °F 28.9 °F 30.16 in NW 3.9 mph 6.9 mph 69 % 0.00 in
01:27 38.0 °F 28.4 °F 30.16 in West 4.7 mph 9.2 mph 68 % 0.00 in
01:30 38.0 °F 28.4 °F 30.17 in NW 4.9 mph 11.5 mph 68 % 0.00 in
01:35 38.0 °F 28.7 °F 30.17 in NW 7.2 mph 12.7 mph 69 % 0.00 in
01:40 37.9 °F 29.0 °F 30.17 in WNW 4.0 mph 6.9 mph 70 % 0.00 in
01:45 37.9 °F 28.6 °F 30.17 in West 8.8 mph 13.8 mph 69 % 0.00 in
01:50 37.8 °F 28.5 °F 30.18 in West 3.4 mph 9.2 mph 69 % 0.00 in
01:55 37.8 °F 28.5 °F 30.18 in NW 8.0 mph 14.0 mph 69 % 0.00 in
02:00 37.7 °F 28.1 °F 30.18 in NW 5.6 mph 9.2 mph 68 % 0.00 in
02:10 37.5 °F 27.9 °F 30.18 in NW 5.0 mph 9.0 mph 68 % 0.00 in
02:15 37.5 °F 28.2 °F 30.18 in NW 5.6 mph 11.5 mph 69 % 0.00 in
02:20 37.5 °F 28.2 °F 30.18 in NW 6.0 mph 13.0 mph 69 % 0.00 in
02:25 37.5 °F 27.9 °F 30.17 in NW 7.0 mph 15.0 mph 68 % 0.00 in
02:30 37.4 °F 28.2 °F 30.17 in WNW 7.6 mph 13.8 mph 69 % 0.00 in
02:35 37.4 °F 27.8 °F 30.17 in NW 8.4 mph 13.8 mph 68 % 0.00 in
02:40 37.4 °F 28.5 °F 30.17 in WNW 2.7 mph 9.2 mph 70 % 0.00 in
02:45 37.5 °F 28.2 °F 30.17 in NW 4.8 mph 12.7 mph 69 % 0.00 in
02:50 37.4 °F 27.8 °F 30.17 in NW 9.1 mph 15.0 mph 68 % 0.00 in
02:55 37.3 °F 28.4 °F 30.17 in NW 8.2 mph 13.8 mph 70 % 0.00 in
03:00 37.3 °F 28.4 °F 30.17 in WNW 6.3 mph 10.4 mph 70 % 0.00 in
03:06 37.3 °F 28.4 °F 30.17 in NNW 6.9 mph 12.7 mph 70 % 0.00 in
03:11 37.3 °F 28.1 °F 30.18 in NW 4.5 mph 8.1 mph 69 % 0.00 in
03:16 37.2 °F 27.6 °F 30.18 in NNW 8.6 mph 13.8 mph 68 % 0.00 in
03:21 37.1 °F 27.9 °F 30.18 in NW 4.9 mph 8.1 mph 69 % 0.00 in
03:26 37.1 °F 28.6 °F 30.19 in NW 7.6 mph 11.5 mph 71 % 0.00 in
03:31 37.0 °F 27.8 °F 30.19 in NW 5.7 mph 11.5 mph 69 % 0.00 in
03:36 37.0 °F 27.8 °F 30.19 in North 4.3 mph 11.5 mph 69 % 0.00 in
03:41 37.1 °F 28.2 °F 30.18 in NW 3.5 mph 8.1 mph 70 % 0.00 in
03:46 37.0 °F 27.8 °F 30.19 in NW 5.8 mph 9.2 mph 69 % 0.00 in
03:51 37.0 °F 28.1 °F 30.19 in NW 5.3 mph 10.4 mph 70 % 0.00 in
03:56 37.0 °F 28.5 °F 30.19 in NW 5.3 mph 11.5 mph 71 % 0.00 in
04:02 37.0 °F 28.1 °F 30.19 in NNW 3.4 mph 8.0 mph 70 % 0.00 in
04:07 36.9 °F 27.7 °F 30.19 in NW 5.4 mph 11.5 mph 69 % 0.00 in
04:12 36.9 °F 28.0 °F 30.19 in WNW 7.2 mph 11.0 mph 70 % 0.00 in
04:17 36.9 °F 27.7 °F 30.19 in NNW 3.6 mph 6.0 mph 69 % 0.00 in
04:22 36.9 °F 27.7 °F 30.19 in North 7.0 mph 12.0 mph 69 % 0.00 in
04:27 36.9 °F 27.3 °F 30.20 in NW 7.4 mph 18.4 mph 68 % 0.00 in
04:32 36.8 °F 27.2 °F 30.20 in NW 7.1 mph 11.5 mph 68 % 0.00 in
04:37 36.9 °F 27.3 °F 30.20 in NNW 4.8 mph 11.5 mph 68 % 0.00 in
04:42 36.8 °F 27.2 °F 30.20 in NW 4.6 mph 8.1 mph 68 % 0.00 in
04:47 36.8 °F 27.6 °F 30.20 in WNW 5.3 mph 12.0 mph 69 % 0.00 in
04:58 36.7 °F 27.5 °F 30.20 in West 8.2 mph 11.5 mph 69 % 0.00 in
05:03 36.7 °F 27.5 °F 30.20 in NNW 4.3 mph 10.4 mph 69 % 0.00 in
05:08 36.6 °F 27.4 °F 30.20 in NW 5.2 mph 9.2 mph 69 % 0.00 in
05:13 36.6 °F 27.0 °F 30.20 in NW 3.2 mph 11.5 mph 68 % 0.00 in
05:18 36.6 °F 27.4 °F 30.20 in NNW 6.3 mph 11.5 mph 69 % 0.00 in
05:23 36.5 °F 27.3 °F 30.20 in North 5.3 mph 15.0 mph 69 % 0.00 in
05:28 36.5 °F 27.6 °F 30.20 in NNW 3.7 mph 6.9 mph 70 % 0.00 in
05:33 36.4 °F 27.2 °F 30.20 in WNW 4.7 mph 8.1 mph 69 % 0.00 in
05:38 36.4 °F 27.2 °F 30.21 in WNW 6.5 mph 9.0 mph 69 % 0.00 in
05:44 36.3 °F 27.1 °F 30.21 in NW 4.7 mph 14.0 mph 69 % 0.00 in
05:49 36.2 °F 27.0 °F 30.21 in NNW 5.0 mph 8.1 mph 69 % 0.00 in
05:54 36.2 °F 27.0 °F 30.22 in NNW 7.7 mph 11.0 mph 69 % 0.00 in
05:59 36.2 °F 27.0 °F 30.22 in North 5.0 mph 10.4 mph 69 % 0.00 in
06:04 36.1 °F 26.6 °F 30.21 in North 4.3 mph 11.5 mph 68 % 0.00 in
06:09 36.0 °F 26.8 °F 30.22 in NNW 6.2 mph 11.5 mph 69 % 0.00 in
06:14 36.0 °F 26.8 °F 30.22 in NW 9.0 mph 13.8 mph 69 % 0.00 in
06:19 35.9 °F 26.7 °F 30.22 in NNW 4.6 mph 8.1 mph 69 % 0.00 in
06:24 35.9 °F 27.1 °F 30.22 in NNW 2.7 mph 4.6 mph 70 % 0.00 in
06:29 35.9 °F 26.7 °F 30.22 in WNW 6.6 mph 9.2 mph 69 % 0.00 in
06:35 35.8 °F 26.6 °F 30.23 in NNW 5.4 mph 12.7 mph 69 % 0.00 in
06:40 35.8 °F 27.0 °F 30.23 in WNW 3.4 mph 6.0 mph 70 % 0.00 in
06:45 35.7 °F 26.5 °F 30.23 in NW 6.2 mph 11.5 mph 69 % 0.00 in
06:50 35.7 °F 26.5 °F 30.23 in NNW 4.1 mph 8.1 mph 69 % 0.00 in
06:55 35.8 °F 27.0 °F 30.23 in WSW 4.4 mph 10.0 mph 70 % 0.00 in
07:00 35.8 °F 26.6 °F 30.22 in WNW 7.4 mph 12.7 mph 69 % 0.00 in
07:05 35.8 °F 27.0 °F 30.23 in WNW 4.7 mph 11.5 mph 70 % 0.00 in
07:10 35.8 °F 27.0 °F 30.22 in NNW 4.6 mph 9.2 mph 70 % 0.00 in
07:15 35.8 °F 27.0 °F 30.22 in NNW 1.8 mph 5.8 mph 70 % 0.00 in
07:20 35.9 °F 27.4 °F 30.22 in WNW 5.3 mph 8.1 mph 71 % 0.00 in
07:25 35.9 °F 27.4 °F 30.23 in WNW 2.6 mph 8.1 mph 71 % 0.00 in
07:30 36.0 °F 27.5 °F 30.23 in NNE 6.4 mph 15.0 mph 71 % 0.00 in
07:35 36.0 °F 27.5 °F 30.24 in NW 2.2 mph 8.0 mph 71 % 0.00 in
07:41 36.1 °F 27.6 °F 30.25 in NW 3.6 mph 9.2 mph 71 % 0.00 in
07:46 36.1 °F 27.3 °F 30.24 in NNW 3.8 mph 9.2 mph 70 % 0.00 in
07:51 36.2 °F 27.7 °F 30.25 in NW 5.3 mph 6.9 mph 71 % 0.00 in
08:01 36.2 °F 27.4 °F 30.25 in NNW 5.2 mph 9.2 mph 70 % 0.00 in
08:06 36.3 °F 27.4 °F 30.25 in NW 4.7 mph 8.1 mph 70 % 0.00 in
08:11 36.3 °F 27.1 °F 30.25 in NW 5.9 mph 9.2 mph 69 % 0.00 in
08:16 36.2 °F 27.0 °F 30.26 in NNW 3.4 mph 6.9 mph 69 % 0.00 in
08:21 36.3 °F 27.1 °F 30.25 in WNW 4.5 mph 9.2 mph 69 % 0.00 in
08:26 36.3 °F 27.1 °F 30.25 in North 3.3 mph 5.8 mph 69 % 0.00 in
08:32 36.3 °F 27.4 °F 30.26 in NNW 3.8 mph 10.4 mph 70 % 0.00 in
08:37 36.4 °F 26.8 °F 30.25 in North 2.4 mph 5.0 mph 68 % 0.00 in
08:42 36.4 °F 27.2 °F 30.25 in North 4.6 mph 8.0 mph 69 % 0.00 in
08:47 36.4 °F 27.2 °F 30.26 in NNE 4.5 mph 5.0 mph 69 % 0.00 in
08:52 36.5 °F 27.3 °F 30.26 in North 3.4 mph 6.9 mph 69 % 0.00 in
08:57 36.5 °F 27.3 °F 30.25 in NW 5.9 mph 11.0 mph 69 % 0.00 in
09:02 36.6 °F 27.4 °F 30.25 in NNW 4.5 mph 8.0 mph 69 % 0.00 in
09:07 36.6 °F 27.4 °F 30.25 in NNW 5.5 mph 8.1 mph 69 % 0.00 in
09:12 36.8 °F 27.6 °F 30.25 in West 4.4 mph 8.1 mph 69 % 0.00 in
09:17 37.0 °F 27.8 °F 30.25 in NW 2.4 mph 6.0 mph 69 % 0.00 in
09:22 37.2 °F 28.0 °F 30.25 in NW 3.9 mph 8.1 mph 69 % 0.00 in
09:28 37.4 °F 27.4 °F 30.25 in WNW 4.8 mph 8.1 mph 67 % 0.00 in
09:33 37.6 °F 27.3 °F 30.25 in NW 5.0 mph 11.5 mph 66 % 0.00 in
09:38 37.9 °F 27.2 °F 30.25 in West 7.3 mph 10.4 mph 65 % 0.00 in
09:43 38.0 °F 27.3 °F 30.26 in NW 4.3 mph 6.9 mph 65 % 0.00 in
09:48 38.1 °F 27.4 °F 30.25 in WNW 5.8 mph 6.9 mph 65 % 0.00 in
09:53 38.2 °F 27.1 °F 30.26 in NW 4.1 mph 10.4 mph 64 % 0.00 in
09:58 38.4 °F 27.3 °F 30.26 in West 7.3 mph 12.7 mph 64 % 0.00 in
10:03 38.6 °F 27.5 °F 30.26 in West 4.7 mph 8.1 mph 64 % 0.00 in
10:08 38.8 °F 27.7 °F 30.26 in North 2.6 mph 11.5 mph 64 % 0.00 in
10:13 39.0 °F 27.5 °F 30.26 in West 5.7 mph 8.1 mph 63 % 0.00 in
10:18 39.1 °F 26.8 °F 30.26 in West 6.6 mph 10.4 mph 61 % 0.00 in
10:23 39.1 °F 27.2 °F 30.26 in NNE 5.3 mph 11.0 mph 62 % 0.00 in
10:29 39.1 °F 27.2 °F 30.25 in North 4.2 mph 10.4 mph 62 % 0.00 in
10:34 39.3 °F 28.1 °F 30.25 in West 4.5 mph 8.1 mph 64 % 0.00 in
10:39 39.5 °F 27.2 °F 30.25 in WNW 3.7 mph 8.1 mph 61 % 0.00 in
10:44 39.7 °F 27.3 °F 30.25 in NW 3.8 mph 12.7 mph 61 % 0.00 in
10:49 39.7 °F 27.3 °F 30.25 in NW 3.6 mph 9.0 mph 61 % 0.00 in
10:54 39.6 °F 27.2 °F 30.25 in WNW 3.6 mph 6.9 mph 61 % 0.00 in
10:59 39.5 °F 27.2 °F 30.25 in NW 4.9 mph 8.0 mph 61 % 0.00 in
11:04 39.5 °F 26.8 °F 30.25 in NW 5.5 mph 11.5 mph 60 % 0.00 in
11:09 39.3 °F 27.0 °F 30.25 in WSW 5.6 mph 11.0 mph 61 % 0.00 in
11:15 39.2 °F 27.3 °F 30.24 in NW 4.0 mph 6.9 mph 62 % 0.00 in
11:20 39.2 °F 26.9 °F 30.24 in West 3.8 mph 9.0 mph 61 % 0.00 in
11:25 39.3 °F 27.0 °F 30.23 in NNW 4.1 mph 8.0 mph 61 % 0.00 in
11:30 39.3 °F 26.6 °F 30.23 in WNW 3.2 mph 11.5 mph 60 % 0.00 in
11:35 39.3 °F 27.0 °F 30.23 in WNW 4.8 mph 8.0 mph 61 % 0.00 in
11:40 39.4 °F 27.1 °F 30.23 in West 5.4 mph 9.2 mph 61 % 0.00 in
11:45 39.4 °F 26.7 °F 30.23 in West 5.0 mph 12.0 mph 60 % 0.00 in
11:50 39.6 °F 27.2 °F 30.23 in WNW 3.0 mph 9.0 mph 61 % 0.00 in
11:55 39.8 °F 27.0 °F 30.23 in WNW 5.0 mph 12.0 mph 60 % 0.00 in
12:00 40.0 °F 27.6 °F 30.23 in NW 3.7 mph 5.8 mph 61 % 0.00 in
12:05 40.3 °F 27.9 °F 30.22 in WNW 4.4 mph 10.4 mph 61 % 0.00 in
12:10 40.5 °F 27.7 °F 30.22 in NW 3.6 mph 11.5 mph 60 % 0.00 in
12:15 40.9 °F 28.1 °F 30.23 in WNW 4.5 mph 9.2 mph 60 % 0.00 in
12:20 41.1 °F 27.9 °F 30.22 in NW 5.7 mph 10.4 mph 59 % 0.00 in
12:25 41.4 °F 28.1 °F 30.22 in NW 7.1 mph 11.0 mph 59 % 0.00 in
12:31 41.7 °F 28.0 °F 30.22 in NNE 1.9 mph 3.5 mph 58 % 0.00 in
12:36 42.0 °F 28.7 °F 30.22 in WNW 5.1 mph 11.0 mph 59 % 0.00 in
12:41 42.2 °F 28.0 °F 30.22 in WNW 3.1 mph 9.2 mph 57 % 0.00 in
12:46 42.4 °F 28.2 °F 30.22 in WNW 4.2 mph 8.1 mph 57 % 0.00 in
12:51 42.5 °F 27.9 °F 30.22 in NNE 3.5 mph 9.2 mph 56 % 0.00 in
12:56 42.6 °F 27.5 °F 30.22 in NNW 4.6 mph 13.8 mph 55 % 0.00 in
13:01 42.7 °F 28.1 °F 30.21 in NW 1.6 mph 3.5 mph 56 % 0.00 in
13:06 42.9 °F 28.7 °F 30.21 in NNW 3.8 mph 6.9 mph 57 % 0.00 in
13:11 43.2 °F 28.5 °F 30.22 in NW 3.7 mph 7.0 mph 56 % 0.00 in
13:16 43.5 °F 28.8 °F 30.21 in North 2.7 mph 8.0 mph 56 % 0.00 in
13:22 43.7 °F 28.6 °F 30.21 in NNW 2.9 mph 5.0 mph 55 % 0.00 in
13:27 44.0 °F 28.4 °F 30.21 in NW 6.0 mph 10.4 mph 54 % 0.00 in
13:32 44.1 °F 28.5 °F 30.21 in WNW 4.5 mph 8.1 mph 54 % 0.00 in
13:37 44.3 °F 29.1 °F 30.21 in NW 8.3 mph 8.3 mph 55 % 0.00 in
13:42 44.3 °F 28.7 °F 30.21 in NW 5.8 mph 9.2 mph 54 % 0.00 in
13:47 44.4 °F 28.8 °F 30.21 in North 4.2 mph 9.2 mph 54 % 0.00 in
13:52 44.4 °F 28.8 °F 30.21 in NW 5.8 mph 9.2 mph 54 % 0.00 in
13:57 44.4 °F 28.8 °F 30.21 in NW 4.1 mph 5.8 mph 54 % 0.00 in
14:02 44.3 °F 29.1 °F 30.21 in NNE 3.4 mph 5.8 mph 55 % 0.00 in
14:07 44.3 °F 28.7 °F 30.21 in WSW 1.9 mph 6.9 mph 54 % 0.00 in
14:13 44.2 °F 29.0 °F 30.21 in North 4.6 mph 10.4 mph 55 % 0.00 in
14:18 44.0 °F 29.3 °F 30.21 in NW 2.3 mph 6.9 mph 56 % 0.00 in
14:23 43.9 °F 28.8 °F 30.21 in NNE 4.2 mph 6.9 mph 55 % 0.00 in
14:28 43.7 °F 28.1 °F 30.21 in West 4.1 mph 5.0 mph 54 % 0.00 in
14:33 43.6 °F 28.5 °F 30.22 in WNW 2.2 mph 5.8 mph 55 % 0.00 in
14:38 43.6 °F 28.9 °F 30.22 in WNW 1.2 mph 3.5 mph 56 % 0.00 in
14:43 43.5 °F 28.4 °F 30.22 in NNW 3.0 mph 10.4 mph 55 % 0.00 in
14:48 43.5 °F 28.8 °F 30.22 in NNW 1.3 mph 4.6 mph 56 % 0.00 in
14:53 43.4 °F 28.7 °F 30.21 in NW 3.0 mph 3.5 mph 56 % 0.00 in
14:58 43.5 °F 28.8 °F 30.22 in WNW 2.6 mph 6.9 mph 56 % 0.00 in
15:04 43.5 °F 28.4 °F 30.22 in North 2.3 mph 4.6 mph 55 % 0.00 in
15:09 43.4 °F 28.7 °F 30.22 in NW 0.8 mph 3.5 mph 56 % 0.00 in
15:14 43.4 °F 28.7 °F 30.22 in NW 1.1 mph 3.5 mph 56 % 0.00 in
15:19 43.4 °F 28.7 °F 30.22 in NW 1.9 mph 4.6 mph 56 % 0.00 in
15:24 43.3 °F 29.1 °F 30.21 in NNW 1.2 mph 4.6 mph 57 % 0.00 in
15:29 43.3 °F 29.1 °F 30.22 in NW 2.7 mph 3.5 mph 57 % 0.00 in
15:34 43.2 °F 29.0 °F 30.22 in NW 0.8 mph 3.5 mph 57 % 0.00 in
15:39 43.1 °F 28.9 °F 30.22 in NW 0.4 mph 2.3 mph 57 % 0.00 in
15:44 43.1 °F 28.9 °F 30.22 in NNW 0.4 mph 1.2 mph 57 % 0.00 in
15:49 43.1 °F 28.9 °F 30.22 in NNW 1.1 mph 3.0 mph 57 % 0.00 in
15:55 43.0 °F 28.8 °F 30.22 in NNW 1.0 mph 4.0 mph 57 % 0.00 in
16:00 42.9 °F 29.1 °F 30.22 in NNE 3.7 mph 5.0 mph 58 % 0.00 in
16:05 42.8 °F 29.5 °F 30.22 in WNW 1.8 mph 5.8 mph 59 % 0.00 in
16:10 42.8 °F 29.0 °F 30.22 in NNW 1.2 mph 5.0 mph 58 % 0.00 in
16:15 42.7 °F 28.9 °F 30.22 in North 1.1 mph 3.5 mph 58 % 0.00 in
16:20 42.7 °F 28.9 °F 30.22 in NW 1.2 mph 3.5 mph 58 % 0.00 in
16:25 42.6 °F 28.8 °F 30.22 in NW 1.0 mph 2.3 mph 58 % 0.00 in
16:30 42.5 °F 29.2 °F 30.22 in North 3.5 mph 5.8 mph 59 % 0.00 in
16:35 42.4 °F 28.7 °F 30.22 in NNW 2.0 mph 4.6 mph 58 % 0.00 in
16:40 42.4 °F 29.1 °F 30.23 in NE 2.2 mph 6.0 mph 59 % 0.00 in
16:46 42.3 °F 29.0 °F 30.23 in WNW 1.5 mph 5.8 mph 59 % 0.00 in
16:51 42.1 °F 29.2 °F 30.23 in NW 3.8 mph 7.0 mph 60 % 0.00 in
16:56 42.0 °F 29.1 °F 30.23 in NNE 3.0 mph 6.9 mph 60 % 0.00 in
17:01 42.0 °F 29.1 °F 30.23 in NNW 0.7 mph 3.5 mph 60 % 0.00 in
17:06 42.0 °F 29.1 °F 30.24 in NNW 0.6 mph 3.5 mph 60 % 0.00 in
17:11 41.9 °F 29.0 °F 30.24 in NNE 5.0 mph 6.9 mph 60 % 0.00 in
17:16 41.9 °F 29.0 °F 30.24 in NNW 4.0 mph 10.4 mph 60 % 0.00 in
17:21 41.9 °F 28.6 °F 30.24 in NNW 2.4 mph 6.9 mph 59 % 0.00 in
17:26 41.9 °F 29.0 °F 30.24 in NNW 1.7 mph 5.8 mph 60 % 0.00 in
17:31 41.9 °F 29.0 °F 30.25 in Calm   2.3 mph 60 % 0.00 in
17:36 41.9 °F 28.6 °F 30.25 in North 3.1 mph 5.8 mph 59 % 0.00 in
17:42 42.0 °F 29.1 °F 30.25 in NNE 1.5 mph 3.5 mph 60 % 0.00 in
17:47 41.9 °F 29.0 °F 30.25 in NNE 4.8 mph 8.1 mph 60 % 0.00 in
17:52 42.0 °F 29.5 °F 30.25 in NW 1.7 mph 5.8 mph 61 % 0.00 in
17:57 42.0 °F 29.5 °F 30.25 in North 1.4 mph 4.0 mph 61 % 0.00 in
18:02 42.1 °F 29.2 °F 30.25 in NNW 3.3 mph 7.0 mph 60 % 0.00 in
18:07 42.1 °F 29.6 °F 30.25 in NNW 1.1 mph 3.5 mph 61 % 0.00 in
18:12 42.1 °F 29.2 °F 30.25 in North 1.0 mph 3.5 mph 60 % 0.00 in
18:17 42.1 °F 29.6 °F 30.25 in NNW 2.5 mph 4.6 mph 61 % 0.00 in
18:22 42.1 °F 29.6 °F 30.25 in NNW 3.0 mph 4.6 mph 61 % 0.00 in
18:27 42.1 °F 29.6 °F 30.25 in NNW 4.1 mph 7.0 mph 61 % 0.00 in
18:32 42.1 °F 29.6 °F 30.26 in North 3.1 mph 5.8 mph 61 % 0.00 in
18:38 42.1 °F 29.6 °F 30.26 in NNE 4.2 mph 5.8 mph 61 % 0.00 in
18:43 42.0 °F 29.5 °F 30.26 in NNE 1.7 mph 3.5 mph 61 % 0.00 in
18:48 42.0 °F 29.5 °F 30.26 in NNE 3.7 mph 4.6 mph 61 % 0.00 in
18:53 41.9 °F 29.4 °F 30.26 in North 3.7 mph 8.1 mph 61 % 0.00 in
18:58 41.9 °F 29.4 °F 30.26 in NNE 2.7 mph 3.5 mph 61 % 0.00 in
19:03 41.8 °F 29.7 °F 30.26 in NNE 3.6 mph 7.0 mph 62 % 0.00 in
19:08 41.7 °F 29.6 °F 30.27 in NNE 3.9 mph 6.9 mph 62 % 0.00 in
19:13 41.6 °F 29.5 °F 30.27 in NNE 4.3 mph 6.9 mph 62 % 0.00 in
19:18 41.5 °F 29.4 °F 30.26 in NNE 5.5 mph 7.0 mph 62 % 0.00 in
19:23 41.5 °F 29.4 °F 30.26 in North 3.4 mph 5.8 mph 62 % 0.00 in
19:28 41.4 °F 28.9 °F 30.26 in NNE 4.4 mph 7.0 mph 61 % 0.00 in
19:33 41.3 °F 29.3 °F 30.26 in NNE 4.7 mph 7.0 mph 62 % 0.00 in
19:39 41.3 °F 29.6 °F 30.26 in NNE 5.2 mph 6.9 mph 63 % 0.00 in
19:44 41.1 °F 29.5 °F 30.26 in NNW 6.7 mph 8.1 mph 63 % 0.00 in
19:49 41.1 °F 29.5 °F 30.26 in NNE 4.9 mph 11.5 mph 63 % 0.00 in
19:54 41.1 °F 29.5 °F 30.26 in NNE 3.9 mph 10.4 mph 63 % 0.00 in
19:59 41.0 °F 29.4 °F 30.26 in NNE 4.9 mph 10.4 mph 63 % 0.00 in
20:04 40.9 °F 29.7 °F 30.27 in NNE 4.4 mph 5.8 mph 64 % 0.00 in
20:09 40.9 °F 30.0 °F 30.27 in NE 3.4 mph 4.6 mph 65 % 0.00 in
20:14 40.8 °F 29.6 °F 30.27 in North 3.2 mph 5.8 mph 64 % 0.00 in
20:19 40.7 °F 29.5 °F 30.27 in NNE 5.5 mph 9.2 mph 64 % 0.00 in
20:24 40.7 °F 29.8 °F 30.27 in NNE 4.3 mph 6.9 mph 65 % 0.00 in
20:29 40.6 °F 29.7 °F 30.27 in NNE 4.3 mph 6.0 mph 65 % 0.00 in
20:35 40.5 °F 29.7 °F 30.26 in NNE 5.5 mph 8.1 mph 65 % 0.00 in
20:40 40.5 °F 29.7 °F 30.26 in NE 3.5 mph 6.9 mph 65 % 0.00 in
20:45 40.4 °F 29.6 °F 30.27 in NNE 5.6 mph 6.9 mph 65 % 0.00 in
20:50 40.3 °F 29.5 °F 30.27 in NE 5.4 mph 7.0 mph 65 % 0.00 in
20:55 40.3 °F 29.8 °F 30.27 in NNE 3.0 mph 7.0 mph 66 % 0.00 in
21:00 40.2 °F 30.1 °F 30.27 in North 3.8 mph 6.9 mph 67 % 0.00 in
21:05 40.2 °F 30.1 °F 30.28 in NNE 3.0 mph 8.0 mph 67 % 0.00 in
21:10 40.1 °F 30.0 °F 30.28 in NNE 2.0 mph 6.0 mph 67 % 0.00 in
21:15 40.0 °F 29.9 °F 30.28 in NNE 4.7 mph 6.9 mph 67 % 0.00 in
21:20 40.0 °F 29.9 °F 30.28 in NNE 3.8 mph 6.0 mph 67 % 0.00 in
21:25 39.9 °F 29.8 °F 30.27 in ENE 5.0 mph 9.2 mph 67 % 0.00 in
21:30 39.9 °F 29.8 °F 30.28 in North 5.2 mph 6.9 mph 67 % 0.00 in
21:35 39.9 °F 29.8 °F 30.29 in North 4.4 mph 6.9 mph 67 % 0.00 in
21:41 39.9 °F 30.2 °F 30.29 in North 2.8 mph 5.0 mph 68 % 0.00 in
21:46 39.9 °F 29.8 °F 30.29 in NNE 2.9 mph 6.0 mph 67 % 0.00 in
21:51 39.8 °F 29.7 °F 30.29 in North 4.9 mph 8.0 mph 67 % 0.00 in
21:56 39.8 °F 30.1 °F 30.29 in NNE 6.2 mph 8.1 mph 68 % 0.00 in
22:01 39.8 °F 30.1 °F 30.29 in North 2.4 mph 5.8 mph 68 % 0.00 in
22:06 39.7 °F 30.0 °F 30.29 in North 4.6 mph 5.8 mph 68 % 0.00 in
22:11 39.7 °F 30.0 °F 30.29 in NNE 3.7 mph 4.6 mph 68 % 0.00 in
22:16 39.6 °F 29.5 °F 30.29 in NNE 5.3 mph 6.0 mph 67 % 0.00 in
22:21 39.6 °F 29.5 °F 30.29 in NNE 2.8 mph 5.8 mph 67 % 0.00 in
22:26 39.6 °F 29.5 °F 30.29 in North 1.8 mph 3.5 mph 67 % 0.00 in
22:31 39.6 °F 29.5 °F 30.29 in NNE 3.6 mph 4.6 mph 67 % 0.00 in
22:37 39.5 °F 29.8 °F 30.29 in NNE 2.6 mph 5.0 mph 68 % 0.00 in
22:42 39.5 °F 29.4 °F 30.29 in NNE 3.9 mph 5.8 mph 67 % 0.00 in
22:47 39.5 °F 29.8 °F 30.28 in NNE 1.3 mph 3.5 mph 68 % 0.00 in
22:52 39.5 °F 29.8 °F 30.29 in NNE 1.2 mph 3.5 mph 68 % 0.00 in
22:57 39.5 °F 29.8 °F 30.29 in NNE 0.5 mph 2.3 mph 68 % 0.00 in
23:02 39.5 °F 29.8 °F 30.29 in NNE 1.9 mph 3.5 mph 68 % 0.00 in
23:07 39.5 °F 29.8 °F 30.29 in NNE 2.2 mph 4.6 mph 68 % 0.00 in
23:12 39.5 °F 29.8 °F 30.29 in North 2.9 mph 4.6 mph 68 % 0.00 in
23:17 39.5 °F 30.2 °F 30.28 in East 4.7 mph 8.0 mph 69 % 0.00 in
23:22 39.5 °F 30.2 °F 30.28 in NE 3.3 mph 6.9 mph 69 % 0.00 in
23:27 39.6 °F 30.3 °F 30.28 in NNE 2.9 mph 6.9 mph 69 % 0.00 in
23:32 39.6 °F 30.6 °F 30.28 in NNE 1.2 mph 3.5 mph 70 % 0.00 in
23:38 39.7 °F 30.7 °F 30.28 in North 1.6 mph 5.8 mph 70 % 0.00 in
23:43 39.8 °F 30.8 °F 30.28 in NE 2.3 mph 5.8 mph 70 % 0.00 in
23:48 39.8 °F 30.8 °F 30.27 in NNE 1.2 mph 6.9 mph 70 % 0.00 in
23:53 39.8 °F 31.2 °F 30.28 in NNE 1.1 mph 3.5 mph 71 % 0.00 in
23:58 39.9 °F 31.3 °F 30.28 in NNE 1.3 mph 5.8 mph 71 % 0.00 in
Crab Meadow Weather
Compliments of Weather Underground - 3 mb

Script developed by  Jim McMurry - jmcmurry@mwt.net Adapted for the template by  Wim van der Kuil - Leuven-Template.eu

Weather Terms: Flood Warning - General or areal flooding of streets, low-lying areas, urban storm drains, creeks and small streams is occurring, imminent, or highly likely. Flood warnings are issued for flooding that occurs more than 6 hours after the excessive rainfall. These warnings are issued on a county by county basis by the local Weather Forecast Office in Upton and are generally in effect for 6 to 12 hours.